| time (UTC) | temp F | wind direction | speed MPH | gust MPH | rain 1hr in | rain 24hr in | rain mn in | humidity % | barometer mb |
| 20260901104555 | 50 | 290 | 0.0 | 0.0 | 0.00 | 0.02 | 0.00 | 94 | 1016.6 |
| 20260901103042 | 49 | 290 | 0.0 | 0.0 | 0.00 | 0.02 | 0.00 | 94 | 1016.5 |
| 20260901101540 | 49 | 290 | 0.0 | 0.0 | 0.00 | 0.02 | 0.00 | 94 | 1016.5 |
| 20260901100046 | 47 | 290 | 0.0 | 0.0 | 0.00 | 0.02 | 0.00 | 94 | 1016.3 |
| 20260901094534 | 47 | 290 | 0.0 | 0.0 | 0.00 | 0.02 | 0.00 | 94 | 1016.2 |
| 20260901093031 | 47 | 290 | 0.0 | 0.0 | 0.00 | 0.02 | 0.00 | 93 | 1016.0 |
| 20260901091529 | 47 | 290 | 0.0 | 0.0 | 0.00 | 0.02 | 0.00 | 93 | 1015.9 |
| 20260901090024 | 48 | 290 | 0.0 | 0.0 | 0.00 | 0.02 | 0.00 | 93 | 1015.8 |
| 20260901084520 | 49 | 271 | 0.0 | 0.0 | 0.00 | 0.02 | 0.00 | 93 | 1015.7 |
| 20260901083020 | 50 | 271 | 0.0 | 0.0 | 0.00 | 0.02 | 0.00 | 93 | 1015.6 |
| 20260901081520 | 50 | 271 | 0.0 | 0.0 | 0.00 | 0.02 | 0.00 | 94 | 1015.5 |
| 20260901080014 | 50 | 271 | 0.0 | 0.0 | 0.00 | 0.02 | 0.00 | 94 | 1015.4 |
| 20260901074510 | 50 | 271 | 0.0 | 0.0 | 0.00 | 0.02 | 0.00 | 93 | 1015.3 |
| 20260901073009 | 51 | 271 | 0.0 | 0.0 | 0.00 | 0.02 | 0.00 | 94 | 1015.2 |
| 20260901071513 | 52 | 271 | 0.0 | 0.0 | 0.00 | 0.02 | 0.00 | 94 | 1015.2 |
| 20260901070003 | 52 | 271 | 0.0 | 0.0 | 0.00 | 0.02 | 0.00 | 94 | 1015.3 |
| 20260901064559 | 51 | 271 | 0.0 | 0.0 | 0.00 | 0.02 | 0.00 | 94 | 1015.4 |
| 20260901063056 | 51 | 271 | 0.0 | 0.0 | 0.00 | 0.02 | 0.00 | 94 | 1015.3 |
| 20260901061555 | 51 | 271 | 0.0 | 0.0 | 0.00 | 0.02 | 0.00 | 93 | 1015.2 |
| 20260901060050 | 50 | 271 | 0.0 | 0.0 | 0.00 | 0.02 | 0.00 | 93 | 1015.0 |
| 20260901054549 | 50 | 271 | 0.0 | 0.0 | 0.00 | 0.03 | 0.00 | 93 | 1015.2 |
| 20260901053047 | 51 | 271 | 0.0 | 0.0 | 0.00 | 0.03 | 0.00 | 93 | 1014.9 |
| 20260901051545 | 51 | 271 | 0.0 | 0.0 | 0.00 | 0.03 | 0.00 | 93 | 1014.8 |
| 20260901050039 | 51 | 271 | 0.0 | 0.0 | 0.00 | 0.03 | 0.00 | 93 | 1014.8 |
| 20260901044547 | 51 | 271 | 0.0 | 0.0 | 0.00 | 0.04 | 0.00 | 93 | 1014.8 |
| 20260901043033 | 51 | 271 | 0.0 | 0.0 | 0.00 | 0.04 | 0.00 | 93 | 1014.8 |
| 20260901041530 | 51 | 271 | 0.0 | 0.0 | 0.00 | 0.04 | 0.00 | 93 | 1014.8 |
| 20260901040034 | 50 | 271 | 0.0 | 0.0 | 0.00 | 0.04 | 0.00 | 93 | 1014.6 |
| 20260901034522 | 50 | 271 | 0.0 | 0.0 | 0.00 | 0.04 | 0.00 | 92 | 1014.5 |
| 20260901033016 | 49 | 271 | 0.0 | 0.0 | 0.00 | 0.04 | 0.00 | 92 | 1014.4 |
| 20260901031513 | 49 | 271 | 0.0 | 0.0 | 0.00 | 0.04 | 0.00 | 91 | 1014.3 |
| 20260901030008 | 49 | 271 | 0.0 | 0.0 | 0.00 | 0.04 | 0.00 | 91 | 1014.3 |
| 20260901024514 | 49 | 271 | 0.0 | 0.0 | 0.00 | 0.22 | 0.04 | 91 | 1014.1 |
| 20260901023002 | 49 | 271 | 0.0 | 1.0 | 0.00 | 0.22 | 0.04 | 91 | 1014.1 |
| 20260901021559 | 50 | 271 | 0.0 | 2.0 | 0.00 | 0.22 | 0.04 | 91 | 1014.0 |
| 20260901020100 | 50 | 271 | 0.0 | 1.0 | 0.00 | 0.22 | 0.04 | 90 | 1013.9 |
| 20260901014553 | 51 | 271 | 0.0 | 1.0 | 0.00 | 0.22 | 0.04 | 90 | 1013.7 |
| 20260901013050 | 52 | 271 | 0.0 | 2.0 | 0.00 | 0.22 | 0.04 | 90 | 1013.7 |
| 20260901011548 | 52 | 271 | 1.0 | 2.0 | 0.00 | 0.22 | 0.04 | 89 | 1013.8 |
| 20260901010042 | 53 | 271 | 0.0 | 2.0 | 0.00 | 0.22 | 0.04 | 89 | 1013.8 |
| 20260901004540 | 53 | 271 | 0.0 | 1.0 | 0.00 | 0.22 | 0.04 | 89 | 1013.4 |
| 20260901003037 | 54 | 271 | 0.0 | 2.0 | 0.00 | 0.22 | 0.04 | 88 | 1013.4 |
| 20260901001530 | 55 | 271 | 0.0 | 2.0 | 0.00 | 0.22 | 0.04 | 88 | 1013.3 |
| 20260901000027 | 55 | 271 | 0.0 | 2.0 | 0.00 | 0.22 | 0.04 | 87 | 1013.2 |
| 20260831234523 | 56 | 258 | 0.0 | 3.0 | 0.00 | 0.22 | 0.04 | 87 | 1013.1 |
| 20260831233020 | 56 | 258 | 2.0 | 5.0 | 0.00 | 0.22 | 0.04 | 86 | 1013.0 |
| 20260831231521 | 57 | 217 | 1.0 | 5.0 | 0.00 | 0.22 | 0.04 | 85 | 1012.7 |
| 20260831230016 | 57 | 232 | 0.0 | 4.0 | 0.00 | 0.22 | 0.04 | 86 | 1012.7 |
| 20260831224513 | 57 | 232 | 2.0 | 7.0 | 0.00 | 0.23 | 0.04 | 85 | 1012.8 |
| 20260831223012 | 58 | 231 | 1.0 | 4.0 | 0.00 | 0.23 | 0.04 | 84 | 1012.8 |
| 20260831221521 | 59 | 221 | 4.0 | 7.0 | 0.00 | 0.23 | 0.04 | 81 | 1012.6 |
| 20260831220007 | 59 | 292 | 3.0 | 5.0 | 0.00 | 0.23 | 0.04 | 83 | 1012.6 |
| 20260831214518 | 60 | 211 | 1.0 | 4.0 | 0.00 | 0.31 | 0.04 | 83 | 1012.5 |
| 20260831213102 | 60 | 169 | 1.0 | 5.0 | 0.00 | 0.31 | 0.04 | 84 | 1012.5 |
| 20260831211601 | 60 | 161 | 2.0 | 4.0 | 0.00 | 0.31 | 0.04 | 84 | 1012.2 |
| 20260831210055 | 59 | 50 | 2.0 | 10.0 | 0.00 | 0.31 | 0.04 | 84 | 1012.1 |
| 20260831204558 | 60 | 165 | 0.0 | 6.0 | 0.00 | 0.31 | 0.04 | 84 | 1012.1 |
| 20260831203052 | 61 | 53 | 3.0 | 11.0 | 0.00 | 0.31 | 0.04 | 81 | 1011.8 |
| 20260831201549 | 61 | 46 | 3.0 | 6.0 | 0.00 | 0.31 | 0.04 | 80 | 1011.5 |
| 20260831200048 | 62 | 132 | 2.0 | 9.0 | 0.00 | 0.31 | 0.04 | 79 | 1011.4 |
| 20260831194641 | 63 | 165 | 2.0 | 6.0 | 0.00 | 0.31 | 0.04 | 79 | 1011.0 |
| 20260831193038 | 62 | 135 | 2.0 | 7.0 | 0.00 | 0.31 | 0.04 | 81 | 1010.9 |
| 20260831191535 | 63 | 66 | 1.0 | 9.0 | 0.00 | 0.31 | 0.04 | 77 | 1010.8 |
| 20260831190044 | 64 | 169 | 4.0 | 8.0 | 0.00 | 0.31 | 0.04 | 76 | 1010.6 |
| 20260831184529 | 63 | 167 | 3.0 | 6.0 | 0.00 | 0.31 | 0.04 | 80 | 1010.6 |
| 20260831183036 | 63 | 44 | 2.0 | 6.0 | 0.00 | 0.31 | 0.04 | 79 | 1010.4 |
| 20260831181524 | 63 | 212 | 3.0 | 9.0 | 0.00 | 0.31 | 0.04 | 79 | 1010.1 |
| 20260831180021 | 63 | 202 | 1.0 | 7.0 | 0.00 | 0.31 | 0.04 | 78 | 1010.0 |
| 20260831174522 | 64 | 61 | 5.0 | 10.0 | 0.00 | 0.31 | 0.04 | 74 | 1009.9 |
| 20260831173016 | 65 | 57 | 3.0 | 7.0 | 0.00 | 0.31 | 0.04 | 77 | 1009.5 |
| 20260831171516 | 64 | 119 | 3.0 | 10.0 | 0.00 | 0.31 | 0.04 | 78 | 1009.6 |
| 20260831170012 | 64 | 205 | 2.0 | 8.0 | 0.00 | 0.31 | 0.04 | 77 | 1009.4 |
| 20260831164510 | 65 | 161 | 10.0 | 17.0 | 0.00 | 0.31 | 0.04 | 73 | 1009.1 |
| 20260831163030 | 65 | 151 | 2.0 | 8.0 | 0.00 | 0.31 | 0.04 | 74 | 1009.1 |
| 20260831161512 | 66 | 175 | 3.0 | 11.0 | 0.00 | 0.31 | 0.04 | 77 | 1009.0 |
| 20260831160008 | 65 | 136 | 3.0 | 11.0 | 0.00 | 0.31 | 0.04 | 76 | 1009.1 |
| 20260831154504 | 66 | 174 | 4.0 | 10.0 | 0.00 | 0.31 | 0.04 | 76 | 1009.2 |
| 20260831153002 | 66 | 94 | 3.0 | 12.0 | 0.00 | 0.31 | 0.04 | 77 | 1009.0 |
| 20260831151503 | 66 | 225 | 2.0 | 9.0 | 0.00 | 0.31 | 0.04 | 75 | 1009.0 |
| 20260831150058 | 66 | 68 | 5.0 | 14.0 | 0.00 | 0.31 | 0.04 | 75 | 1009.0 |
| 20260831144555 | 66 | 79 | 6.0 | 16.0 | 0.00 | 0.31 | 0.04 | 76 | 1008.7 |
| 20260831143100 | 67 | 40 | 4.0 | 8.0 | 0.00 | 0.31 | 0.04 | 76 | 1008.6 |
| 20260831141548 | 65 | 56 | 7.0 | 18.0 | 0.00 | 0.31 | 0.04 | 76 | 1008.7 |
| 20260831140044 | 65 | 48 | 8.0 | 19.0 | 0.00 | 0.31 | 0.04 | 78 | 1008.6 |
| 20260831134541 | 64 | 63 | 6.0 | 15.0 | 0.00 | 0.31 | 0.04 | 79 | 1008.6 |
| 20260831133040 | 64 | 69 | 7.0 | 13.0 | 0.00 | 0.31 | 0.04 | 82 | 1008.3 |
| 20260831131542 | 63 | 28 | 8.0 | 17.0 | 0.00 | 0.31 | 0.04 | 82 | 1008.2 |
| 20260831130037 | 64 | 88 | 4.0 | 10.0 | 0.00 | 0.31 | 0.04 | 85 | 1008.1 |
| 20260831124531 | 62 | 78 | 10.0 | 18.0 | 0.00 | 0.31 | 0.04 | 88 | 1007.9 |
| 20260831123023 | 61 | 65 | 2.0 | 10.0 | 0.00 | 0.31 | 0.04 | 94 | 1007.8 |
| 20260831121520 | 61 | 76 | 3.0 | 4.0 | 0.00 | 0.31 | 0.04 | 95 | 1007.7 |
| 20260831120015 | 60 | 53 | 0.0 | 4.0 | 0.01 | 0.31 | 0.04 | 95 | 1007.6 |
| 20260831114512 | 59 | 240 | 0.0 | 2.0 | 0.02 | 0.31 | 0.04 | 95 | 1007.6 |
| 20260831113010 | 58 | 240 | 0.0 | 2.0 | 0.02 | 0.31 | 0.04 | 95 | 1007.5 |
| 20260831111514 | 57 | 240 | 0.0 | 4.0 | 0.02 | 0.31 | 0.04 | 95 | 1007.5 |
| 20260831110006 | 57 | 355 | 1.0 | 2.0 | 0.01 | 0.30 | 0.03 | 95 | 1007.5 |